Location: �clusier
(49.9361°N, 2.7869°E)
Time: 00:29:59
(UTC+00:00)

Cosmos 1331 Rocket - Pass Details

Date: 30 October 2021
Orbit: 748 x 778 km, 74.0° (Epoch: 07 December)

Event Time Altitude Azimuth Distance (km) Brightness Sun altitude
Exits shadow 04:09:57 -1° 341° (NNW) 3,294 7.2 -23.8°
Rises 04:10:08 0° 342° (NNW) 3,236 7.1 -23.8°
Reaches altitude 10° 04:13:01 10° 357° (N) 2,312 6.5 -23.3°
Maximum altitude 04:17:06 22° 48° (NE) 1,622 6.2 -22.6°
Drops below altitude 10° 04:21:11 10° 100° (E) 2,317 7.6 -22.0°
Sets 04:24:05 0° 115° (ESE) 3,245 8.3 -21.5°
